Regional Weather Roundup
Issued by NWS

Home | Current Version | Previous Version | Text Only | Print | Product List | Glossary Off
Versions: 1 2 3 4 5 6 7 8 9 10 11 12 13 14 15 16 17 18 19 20 21 22 23 24 25 26 27 28 29 30 31 32 33 34 35 36 37 38 39 40 41 42 43 44 45 46 47 48 49 50

000
ASUS45 KBOU 270807
RWRCO

WEATHER ROUNDUP FOR COLORADO
NATIONAL WEATHER SERVICE DENVER/BOULDER CO
200 AM MDT FRI MAY 27 2016

NOTE: "FAIR" INDICATES FEW OR NO CLOUDS BELOW 12000 FEET WITH NO
SIGNIFICANT WEATHER AND/OR OBSTRUCTIONS TO VISIBILITY.

COZ001>005-013-030-031-270900-
...NORTHWEST COLORADO...

CITY           SKY/WX    TMP DP  RH WIND       PRES   REMARKS
CRAIG          CLOUDY    43  37  79 CALM      29.98R
HAYDEN         MOCLDY    43  34  70 S3        29.98S
MEEKER         LGT RAIN  46  41  82 SE3       29.98S
MOUNT WERNER   NOT AVBL
STEAMBOAT SPGS MOCLDY    41  36  80 CALM      29.99S
WALDEN         FAIR      36  32  87 NW7       30.01F
$$

COZ006>008-011-270900-
...WEST CENTRAL VALLEYS...

CITY           SKY/WX    TMP DP  RH WIND       PRES   REMARKS
GRAND JUNCTION CLOUDY    52  38  58 N7        29.92S
MONTROSE       FAIR      47  37  68 SE9       29.98S
EAGLE          CLOUDY    43  43 100 CALM      30.02S
RIFLE          CLOUDY    50  41  71 S5        29.95S
DELTA          FAIR      53  39  60 CALM      29.96S
NUCLA          FAIR      46  36  66 E8        30.01S
$$

COZ017>023-064>068-270900-
...SOUTHWEST COLORADO...

CITY           SKY/WX    TMP DP  RH WIND       PRES   REMARKS
DURANGO        CLOUDY    47  29  49 SW5       29.94F
CORTEZ         FAIR      41  34  76 NE5       29.97S
PAGOSA SPRINGS CLOUDY    42  34  73 NE9       30.00S
TELLURIDE      MOCLDY    34  34 100 CALM      30.08S
WOLF CREEK PAS CLOUDY    25  25 100 CALM      30.11S
$$

COZ009-010-012-014-032>034-037-058>063-270900-
...CENTRAL COLORADO...

CITY           SKY/WX    TMP DP  RH WIND       PRES   REMARKS
ASPEN          CLOUDY    39  36  89 SW5       30.00F
BUENA VISTA    MOCLDY    38  36  92 E3        29.97F
COPPER MTN     NOT AVBL
BERTHOUD PASS  HAZE      23  14  68 N13G21    30.09F VSB<1/4 WCI  11
COTTONWOOD PAS CLOUDY    37  32  81 NW3       30.02S
GUNNISON       FAIR      43  34  70 SW5       30.01F
KREMMLING      MOCLDY    41  32  70 CALM      29.99S
LEADVILLE      MOCLDY    32  29  88 N3        30.02S
MONARCH PASS   CLOUDY    28  27  93 NW3       30.17F VSB<1/4
SALIDA         CLOUDY    42  40  93 CALM      30.04F
SUNLIGHT       CLOUDY    34  32  93 W6        30.12F WCI  29
WILKERSON PASS LGT SNOW  30  28  93 N10G24    30.05F WCI  21
$$

COZ069>075-270900-
...SAN LUIS VALLEY/SANGRE DE CRISTO MOUNTAINS...

CITY           SKY/WX    TMP DP  RH WIND       PRES   REMARKS
ALAMOSA        LGT RAIN  37  35  92 W14       29.97F
LA VETA PASS   CLOUDY    32  30  93 MISG      30.00F
SAGUACHE       CLOUDY    37  36  93 NW9       29.98S
$$

COZ035-036-038>040-270900-
...NORTHERN COLORADO FRONT RANGE...

CITY           SKY/WX    TMP DP  RH WIND       PRES   REMARKS
DENVER INTL AP LGT RAIN  46  43  89 E5        29.89R FOG
DMNS CITY PARK   N/A     48  46  94 E8G18     29.89R
AURORA         LGT RAIN  45  45 100 E3        29.90R FOG
FRONT RANGE AP NOT AVBL
ERIE MUNI ARPT CLOUDY    47  45  93 CALM      29.88R
BOULDER MUN AP CLOUDY    46  45  93 CALM      29.87S
CENTENNIAL     LGT RAIN  46  44  93 E5        29.89S
BROOMFIELD     CLOUDY    46  43  87 NW3       29.89S
FORT COLLINS   FAIR      48  45  87 CALM      29.89S
LONGMONT       CLOUDY    48  45  88 CALM      29.89S
$$

COZ041-046-047-076>085-087-088-270900-
...PIKES PEAK/PALMER DIVIDE AND SOUTHERN FOOTHILLS...

CITY           SKY/WX    TMP DP  RH WIND       PRES   REMARKS
COLO. SPRINGS  LGT RAIN  46  40  79 N9        29.90F
A. F. ACADEMY  LGT RAIN  43  41  93 NW6       29.89F
SCHRIEVER AFB  NOT AVBL
ELLICOTT       LGT RAIN N/A N/A N/A N14       29.87F
FALCON         RAIN      42  39  89 N12G18    29.91F
FORT CARSON    LGT RAIN  47  43  85 W5        29.87F
LIMON          RAIN      44  44 100 NW12      29.84F FOG
MONUMENT HILL  RAIN      39  37  93 N8        29.93S
TRINIDAD       MOCLDY    42  36  79 E6        29.89F
$$

COZ042>045-048>051-090-091-270900-
...NORTHEAST COLORADO...

CITY           SKY/WX    TMP DP  RH WIND       PRES   REMARKS
GREELEY ARPT   CLOUDY    48  46  93 W6        29.87F
AKRON          RAIN      48  46  93 NW16      29.82S FOG
BURLINGTON     CLOUDY    50  45  83 NW8       29.77F
WRAY           CLOUDY    52  52 100 N9        29.77R
STERLING       RAIN      50  50 100 N10       29.81R
HOLYOKE        NOT AVBL
FORT MORGAN    LGT RAIN  48  46  93 W8        29.84F
$$

COZ086-089-092>099-270900-
...SOUTHEAST COLORADO...

CITY           SKY/WX    TMP DP  RH WIND       PRES   REMARKS
PUEBLO         RAIN      50  45  83 SW5       29.87S
LA JUNTA       CLOUDY    51  42  71 W9        29.83F
LAMAR          FAIR      43  39  86 SW8       29.79F
SPRINGFIELD      N/A     45  38  76 NW14G23   29.80F
$$



USA.gov is the U.S. government's official web portal to all federal, state and local government web resources and services.